Flight Track Log - Related Links

Times and Time Zones

All times are in EDT time to prevent confusion due to time zone crossing. See the DAL268 flight status page for this flight to view local times or setup timezone preferences in your user account.

Time Position Orientation Groundspeed Altitude Reporting Facility
EDT Latitude Longitude Course Direction KTS MPH feet Rate Location/Type
Tue 14:20:56 37.6150 -122.3820 222° Southwest  Level FlightAware ADS-B
Tue 14:35:00 37.6984 -122.0883 67° East  Level FlightAware Approximate
Tue 14:35:40 37.6160 -122.3810 67° East  Level FlightAware ADS-B
Tue 14:38:00 37.7231 -122.0256 63° Northeast  Level FlightAware Approximate
Tue 14:38:57 37.6150 -122.3810 65° Northeast 19 22  Level FlightAware ADS-B
Tue 14:39:00 37.7783 -121.8765 65° Northeast  Level FlightAware Approximate
Tue 14:41:00 37.7064 -122.0673 63° Northeast  Level FlightAware Approximate
Tue 14:42:00 37.7629 -121.9189 65° Northeast  Level FlightAware Approximate
Tue 14:43:00 37.8110 -121.7672 67° East  Level FlightAware Approximate
Tue 14:43:51 37.6110 -122.3830 58° Northeast 14 16  Level FlightAware ADS-B
Tue 14:44:00 37.8659 -121.6181 58° Northeast  Level FlightAware Approximate
Tue 14:46:00 37.7123 -122.0526 63° Northeast  Level FlightAware Approximate
Tue 14:46:28 37.6100 -122.3840 63° Northeast 12 14  Level FlightAware ADS-B
Tue 14:46:48 37.6090 -122.3840 180° South 14 16 Level FlightAware ADS-B
Tue 14:48:41 37.6090 -122.3850 270° West 2 2 Level FlightAware ADS-B
Tue 14:49:22 37.6080 -122.3850 180° South 2 2 Level FlightAware ADS-B
Tue 14:50:45 37.6080 -122.3840 90° East 11 13 10 Level FlightAware ADS-B
Tue 14:51:26 37.6070 -122.3840 180° South 2 2 12 Level FlightAware ADS-B
Tue 14:54:00 37.7365 -121.9912 65° Northeast  Level FlightAware Approximate
Tue 14:55:00 37.7910 -121.8415 65° Northeast  Level FlightAware Approximate
Tue 14:56:00 37.8371 -121.6887 67° East  Level FlightAware Approximate
Tue 14:56:13 37.6060 -122.3830 67° East 16 18  Level FlightAware ADS-B
Tue 14:56:54 37.6060 -122.3820 90° East 32 Level FlightAware ADS-B
Tue 14:57:56 37.6060 -122.3810 90° East 17 20 41 Level FlightAware ADS-B
Tue 14:58:24 37.6070 -122.3810 360° North 71 Level FlightAware ADS-B
Tue 14:58:53 37.6080 -122.3800 38° Northeast 61 70 105 Level FlightAware ADS-B
Tue 14:59:21 37.6231 -122.3700 28° Northeast 164 189 100 789 Climbing FlightAware ADS-B
Tue 14:59:31 37.6296 -122.3650 31° Northeast 163 188 500 2,571 Climbing FlightAware ADS-B
Tue 14:59:35 37.6318 -122.3640 20° North 166 191 700 2,667 Climbing FlightAware ADS-B
Tue 14:59:40 37.6353 -122.3600 42° Northeast 170 196 900 2,182 Climbing FlightAware ADS-B
Tue 14:59:46 37.6385 -122.3560 45° Northeast 171 197 1,100 2,250 Climbing FlightAware ADS-B
Tue 14:59:56 37.6438 -122.3490 46° Northeast 173 199 1,500 1,600 Climbing FlightAware ADS-B
Tue 15:00:16 37.6557 -122.3340 45° Northeast 191 220 1,900 1,167 Climbing FlightAware ADS-B
Tue 15:00:32 37.6676 -122.3190 45° Northeast 222 255 2,200 1,636 Climbing FlightAware ADS-B
Tue 15:00:49 37.6799 -122.3040 44° Northeast 232 267 2,800 1,688 Climbing FlightAware ADS-B
Tue 15:01:04 37.6922 -122.2880 46° Northeast 243 280 3,100 1,400 Climbing FlightAware ADS-B
Tue 15:01:19 37.7054 -122.2720 44° Northeast 269 310 3,500 2,000 Climbing FlightAware ADS-B
Tue 15:01:40 37.7243 -122.2490 44° Northeast 280 322 4,300 2,449 Climbing FlightAware ADS-B
Tue 15:02:08 37.7501 -122.2160 45° Northeast 281 323 5,500 2,545 Climbing FlightAware ADS-B
Tue 15:02:13 37.7546 -122.2090 51° Northeast 286 329 5,700 2,667 Climbing FlightAware ADS-B
Tue 15:02:17 37.7572 -122.2040 57° Northeast 288 331 5,900 2,571 Climbing FlightAware ADS-B
Tue 15:02:20 37.7599 -122.1990 56° Northeast 289 333 6,000 2,571 Climbing FlightAware ADS-B
Tue 15:02:31 37.7661 -122.1840 62° Northeast 288 331 6,500 2,769 Climbing FlightAware ADS-B
Tue 15:02:46 37.7731 -122.1590 70° East 289 333 7,200 2,516 Climbing FlightAware ADS-B
Tue 15:03:02 37.7797 -122.1330 72° East 295 339 7,800 2,438 Climbing FlightAware ADS-B
Tue 15:03:18 37.7862 -122.1070 72° East 299 344 8,500 2,438 Climbing FlightAware ADS-B
Tue 15:03:34 37.7929 -122.0810 72° East 303 349 9,100 2,129 Climbing FlightAware ADS-B
Tue 15:03:49 37.7997 -122.0550 72° East 313 360 9,600 1,400 Climbing FlightAware ADS-B
Tue 15:04:04 37.8067 -122.0280 72° East 331 381 9,800 1,592 Climbing FlightAware ADS-B
Tue 15:04:38 37.8241 -121.9630 71° East 351 404 10,900 2,531 Climbing FlightAware ADS-B
Tue 15:05:08 37.8401 -121.9040 71° East 345 397 12,500 2,806 Climbing FlightAware ADS-B
Tue 15:05:40 37.8561 -121.8440 71° East 348 400 13,800 2,286 Climbing FlightAware ADS-B
Tue 15:06:11 37.8722 -121.7830 71° East 357 411 14,900 1,967 Climbing FlightAware ADS-B
Tue 15:06:41 37.8881 -121.7220 72° East 369 425 15,800 1,759 Climbing FlightAware ADS-B
Tue 15:07:09 37.9035 -121.6640 71° East 377 434 16,600 1,831 Climbing FlightAware ADS-B
Tue 15:07:40 37.9203 -121.6000 72° East 382 440 17,600 1,967 Climbing FlightAware ADS-B
Tue 15:08:10 37.9371 -121.5350 72° East 386 444 18,600 1,869 Climbing FlightAware ADS-B
Tue 15:08:41 37.9546 -121.4680 72° East 393 452 19,500 1,645 Climbing FlightAware ADS-B
Tue 15:09:12 37.9727 -121.3990 72° East 400 460 20,300 1,619 Climbing FlightAware ADS-B
Tue 15:09:44 37.9913 -121.3270 72° East 404 465 21,200 1,548 Climbing FlightAware ADS-B
Tue 15:10:14 38.0080 -121.2620 72° East 412 474 21,900 1,375 Climbing FlightAware ADS-B
Tue 15:10:32 38.0196 -121.2180 71° East 406 467 22,300 1,469 Climbing FlightAware ADS-B
Tue 15:11:03 38.0385 -121.1440 72° East 425 489 23,100 1,478 Climbing FlightAware ADS-B
Tue 15:11:41 38.0618 -121.0540 72° East 425 489 24,000 1,412 Climbing FlightAware ADS-B
Tue 15:12:28 38.0900 -120.9410 72° East 435 501 25,100 1,440 Climbing FlightAware ADS-B
Tue 15:12:56 38.1070 -120.8720 73° East 439 505 25,800 1,412 Climbing FlightAware ADS-B
Tue 15:13:36 38.1310 -120.7720 73° East 445 512 26,700 1,244 Climbing FlightAware ADS-B
Tue 15:14:18 38.1560 -120.6670 73° East 452 520 27,500 1,116 Climbing FlightAware ADS-B
Tue 15:15:02 38.1830 -120.5540 73° East 463 533 28,300 837 Climbing FlightAware ADS-B
Tue 15:15:44 38.2090 -120.4440 73° East 481 554 28,700 512 Climbing FlightAware ADS-B
Tue 15:16:24 38.2340 -120.3360 74° East 495 570 29,000 632 Climbing FlightAware ADS-B
Tue 15:17:00 38.2590 -120.2310 73° East 505 581 29,500 1,105 Climbing FlightAware ADS-B
Tue 15:17:40 38.2860 -120.1170 73° East 506 582 30,400 1,244 Climbing FlightAware ADS-B
Tue 15:18:22 38.3140 -119.9960 74° East 506 582 31,200 1,317 Climbing FlightAware ADS-B
Tue 15:19:02 38.3400 -119.8840 73° East 502 578 32,200 1,484 Climbing FlightAware ADS-B
Tue 15:19:55 38.3740 -119.7370 74° East 494 568 33,500 1,091 Climbing FlightAware ADS-B
Tue 15:20:30 38.3960 -119.6400 74° East 502 578 33,800 640 Climbing FlightAware ADS-B
Tue 15:21:10 38.4220 -119.5270 74° East 507 583 34,300 818 Climbing FlightAware ADS-B
Tue 15:21:58 38.4550 -119.3840 74° East 510 587 35,000 500 Climbing FlightAware ADS-B
Tue 15:22:34 38.4780 -119.2790 74° East 514 592 35,000  Level FlightAware ADS-B
Tue 15:23:20 38.5050 -119.1460 75° East 509 586 35,000  Level FlightAware ADS-B
Tue 15:24:02 38.5190 -119.0200 82° East 508 585 35,000  Level FlightAware ADS-B
Tue 15:24:44 38.5310 -118.8970 83° East 506 582 35,000  Level FlightAware ADS-B
Tue 15:25:22 38.5420 -118.7820 83° East 506 582 35,000  Level FlightAware ADS-B
Tue 15:26:12 38.5560 -118.6370 83° East 505 581 35,000  Level FlightAware ADS-B
Tue 15:26:56 38.5690 -118.5060 83° East 504 580 35,000  Level FlightAware ADS-B
Tue 15:27:32 38.5790 -118.4000 83° East 504 580 35,000  Level FlightAware ADS-B
Tue 15:28:12 38.5900 -118.2840 83° East 504 580 35,000 558 Level FlightAware ADS-B
Tue 15:28:58 38.6030 -118.1480 83° East 501 577 35,800 1,023 Climbing FlightAware ADS-B
Tue 15:29:40 38.6150 -118.0230 83° East 498 573 36,500 450 Climbing FlightAware ADS-B
Tue 15:30:58 38.6330 -117.8310 83° East 497 572 36,700 105 Climbing FlightAware ADS-B
Tue 15:31:34 38.6410 -117.7420 83° East 497 572 36,700  Level FlightAware ADS-B
Tue 15:32:10 38.6500 -117.6520 83° East 497 572 36,700  Level FlightAware ADS-B
Tue 15:32:48 38.6590 -117.5580 83° East 497 572 36,700  Level FlightAware ADS-B
Tue 15:33:36 38.6710 -117.4390 83° East 497 572 36,700  Level FlightAware ADS-B
Tue 15:34:20 38.6810 -117.3290 83° East 497 572 36,700  Level FlightAware ADS-B
Tue 15:35:00 38.6900 -117.2300 83° East 497 572 36,700  Level FlightAware ADS-B
Tue 15:35:36 38.6990 -117.1400 83° East 497 572 36,700  Level FlightAware ADS-B
Tue 15:36:24 38.7100 -117.0210 83° East 497 572 36,700  Level FlightAware ADS-B
Tue 15:37:00 38.7190 -116.9320 83° East 497 572 36,700  Level FlightAware ADS-B
Tue 15:37:37 38.7280 -116.8400 83° East 497 572 36,700  Level FlightAware ADS-B
Tue 15:38:37 38.7420 -116.6900 83° East 497 572 36,700  Level FlightAware ADS-B
Tue 15:39:36 38.7560 -116.5440 83° East 497 572 36,700 123 Level FlightAware ADS-B
Tue 15:41:03 38.8619 -116.0658 83° East 497 572 37,000 137 Climbing Oakland Center
Tue 15:41:47 38.8800 -115.9258 81° East 499 574 37,000  Level Salt Lake Center
Tue 15:42:49 38.9036 -115.7494 80° East 500 575 37,000  Level Salt Lake Center
Tue 15:43:51 38.9283 -115.5731 80° East 501 577 37,000  Level Salt Lake Center
Tue 15:44:53 38.9522 -115.3978 80° East 500 575 37,000  Level Salt Lake Center
Tue 15:45:55 38.9767 -115.2050 81° East 500 575 37,000  Level Salt Lake Center
Tue 15:46:57 39.0006 -115.0275 80° East 503 579 37,000  Level Salt Lake Center
Tue 15:47:59 39.0289 -114.8508 78° East 505 581 37,000  Level Salt Lake Center
Tue 15:53:18 39.2740 -113.9120 78° East 511 588 37,000  Level FlightAware ADS-B
Tue 15:54:00 39.3030 -113.8030 71° East 511 588 37,000  Level FlightAware ADS-B
Tue 15:54:42 39.3370 -113.6700 72° East 511 588 37,000  Level FlightAware ADS-B
Tue 15:55:22 39.3660 -113.5560 72° East 511 588 37,000  Level FlightAware ADS-B
Tue 15:56:08 39.4010 -113.4210 71° East 511 588 37,000  Level FlightAware ADS-B
Tue 15:56:52 39.4338 -113.2910 72° East 511 588 37,000  Level FlightAware ADS-B
Tue 15:57:23 39.4560 -113.2030 72° East 511 588 37,000  Level FlightAware ADS-B
Tue 15:57:53 39.4781 -113.1150 72° East 511 588 37,000  Level FlightAware ADS-B
Tue 15:58:23 39.5005 -113.0260 72° East 512 589 37,000  Level FlightAware ADS-B
Tue 15:58:55 39.5232 -112.9350 72° East 512 589 37,000  Level FlightAware ADS-B
Tue 15:59:27 39.5464 -112.8420 72° East 513 590 37,000  Level FlightAware ADS-B
Tue 15:59:57 39.5684 -112.7530 72° East 512 589 37,000  Level FlightAware ADS-B
Tue 16:00:27 39.5902 -112.6650 72° East 512 589 37,000  Level FlightAware ADS-B
Tue 16:00:58 39.6118 -112.5770 72° East 512 589 37,000  Level FlightAware ADS-B
Tue 16:01:28 39.6335 -112.4880 72° East 513 590 37,000  Level FlightAware ADS-B
Tue 16:01:58 39.6551 -112.3990 72° East 512 589 37,000  Level FlightAware ADS-B
Tue 16:02:29 39.6766 -112.3100 73° East 512 589 37,000  Level FlightAware ADS-B
Tue 16:02:59 39.6979 -112.2210 73° East 513 590 37,000  Level FlightAware ADS-B
Tue 16:03:36 39.7241 -112.1120 73° East 513 590 37,000  Level FlightAware ADS-B
Tue 16:04:10 39.7480 -112.0120 73° East 514 592 37,000  Level FlightAware ADS-B
Tue 16:04:52 39.7772 -111.8890 73° East 514 592 37,000  Level FlightAware ADS-B
Tue 16:05:28 39.8021 -111.7840 73° East 515 593 37,000  Level FlightAware ADS-B
Tue 16:05:59 39.8236 -111.6930 73° East 514 592 37,000  Level FlightAware ADS-B
Tue 16:06:29 39.8449 -111.6020 73° East 514 592 37,000  Level FlightAware ADS-B
Tue 16:07:04 39.8689 -111.4990 73° East 514 592 37,000  Level FlightAware ADS-B
Tue 16:07:34 39.8897 -111.4100 73° East 514 592 37,000  Level FlightAware ADS-B
Tue 16:08:08 39.9125 -111.3110 73° East 514 592 37,000  Level FlightAware ADS-B
Tue 16:08:51 39.9419 -111.1840 73° East 513 590 37,000  Level FlightAware ADS-B
Tue 16:09:22 39.9633 -111.0910 73° East 514 592 37,000  Level FlightAware ADS-B
Tue 16:09:53 39.9842 -110.9990 73° East 515 593 37,000  Level FlightAware ADS-B
Tue 16:10:27 40.0067 -110.9000 73° East 515 593 37,000  Level FlightAware ADS-B
Tue 16:10:57 40.0272 -110.8090 74° East 514 592 37,000  Level FlightAware ADS-B
Tue 16:11:46 40.0560 -110.6820 73° East 514 592 37,000  Level FlightAware ADS-B
Tue 16:12:18 40.0813 -110.5690 74° East 516 594 37,000  Level FlightAware ADS-B
Tue 16:12:59 40.1070 -110.4530 74° East 515 593 37,000  Level FlightAware ADS-B
Tue 16:13:43 40.1370 -110.3180 74° East 516 594 37,000  Level FlightAware ADS-B
Tue 16:14:21 40.1620 -110.2050 74° East 515 593 37,000  Level FlightAware ADS-B
Tue 16:15:05 40.1900 -110.0790 74° East 516 594 37,000  Level FlightAware ADS-B
Tue 16:15:48 40.2190 -109.9450 74° East 515 593 37,000  Level FlightAware ADS-B
Tue 16:16:27 40.2440 -109.8280 74° East 516 594 37,000  Level FlightAware ADS-B
Tue 16:17:15 40.2740 -109.6910 74° East 517 595 37,000  Level FlightAware ADS-B
Tue 16:17:53 40.2990 -109.5730 74° East 516 594 37,000  Level FlightAware ADS-B
Tue 16:18:29 40.3210 -109.4700 74° East 516 594 37,000  Level FlightAware ADS-B
Tue 16:19:08 40.3440 -109.3630 74° East 516 594 37,000  Level FlightAware ADS-B
Tue 16:19:57 40.3790 -109.1970 74° East 516 594 37,000  Level FlightAware ADS-B
Tue 16:20:37 40.4040 -109.0760 75° East 516 594 37,000  Level FlightAware ADS-B
Tue 16:21:20 40.4290 -108.9530 75° East 516 594 37,000  Level FlightAware ADS-B
Tue 16:21:58 40.4540 -108.8330 75° East 517 595 37,000  Level FlightAware ADS-B
Tue 16:22:43 40.4830 -108.6950 75° East 517 595 37,000  Level FlightAware ADS-B
Tue 16:23:25 40.5090 -108.5680 75° East 518 596 37,000  Level FlightAware ADS-B
Tue 16:24:10 40.5370 -108.4310 75° East 518 596 37,000  Level FlightAware ADS-B
Tue 16:24:50 40.5580 -108.3240 75° East 519 597 37,000  Level FlightAware ADS-B
Tue 16:25:31 40.5860 -108.1850 75° East 517 595 37,000  Level FlightAware ADS-B
Tue 16:26:08 40.6080 -108.0730 75° East 517 595 37,000  Level FlightAware ADS-B
Tue 16:26:52 40.6340 -107.9400 76° East 518 596 37,000  Level FlightAware ADS-B
Tue 16:27:35 40.6590 -107.8180 75° East 519 597 37,000  Level FlightAware ADS-B
Tue 16:28:18 40.6860 -107.6790 76° East 518 596 37,000  Level FlightAware ADS-B
Tue 16:29:01 40.7080 -107.5630 76° East 518 596 37,000  Level FlightAware ADS-B
Tue 16:29:43 40.7350 -107.4270 75° East 518 596 37,000  Level FlightAware ADS-B
Tue 16:30:24 40.7590 -107.2980 76° East 519 597 37,000  Level FlightAware ADS-B
Tue 16:31:09 40.7870 -107.1530 76° East 519 597 37,000  Level FlightAware ADS-B
Tue 16:31:48 40.8100 -107.0320 76° East 520 598 37,000  Level FlightAware ADS-B
Tue 16:32:33 40.8360 -106.8940 76° East 519 597 37,000  Level FlightAware ADS-B
Tue 16:33:12 40.8580 -106.7740 76° East 520 598 37,000  Level FlightAware ADS-B
Tue 16:33:57 40.8830 -106.6400 76° East 519 597 37,000  Level FlightAware ADS-B
Tue 16:34:31 40.9030 -106.5310 76° East 520 598 37,000  Level FlightAware ADS-B
Tue 16:35:11 40.9250 -106.4090 77° East 519 597 37,000  Level FlightAware ADS-B
Tue 16:35:55 40.9500 -106.2740 76° East 519 597 37,000  Level FlightAware ADS-B
Tue 16:36:35 40.9720 -106.1510 77° East 519 597 37,000  Level FlightAware ADS-B
Tue 16:37:13 40.9930 -106.0330 77° East 520 598 37,000  Level FlightAware ADS-B
Tue 16:38:03 41.0210 -105.8790 76° East 519 597 37,000  Level FlightAware ADS-B
Tue 16:38:43 41.0420 -105.7590 77° East 519 597 37,000  Level FlightAware ADS-B
Tue 16:39:02 41.0534 -105.6930 77° East 520 598 37,000  Level FlightAware ADS-B
Tue 16:39:34 41.0706 -105.5950 77° East 520 598 37,000  Level FlightAware ADS-B
Tue 16:40:04 41.0870 -105.5010 77° East 520 598 37,000  Level FlightAware ADS-B
Tue 16:40:40 41.1060 -105.3890 77° East 522 601 37,000  Level FlightAware ADS-B
Tue 16:40:57 41.1154 -105.3370 76° East 522 601 37,000  Level FlightAware ADS-B
Tue 16:41:30 41.1328 -105.2350 77° East 523 602 37,000  Level FlightAware ADS-B
Tue 16:42:00 41.1491 -105.1400 77° East 525 604 37,000  Level FlightAware ADS-B
Tue 16:42:31 41.1655 -105.0430 77° East 525 604 37,000  Level FlightAware ADS-B
Tue 16:43:02 41.1816 -104.9480 77° East 524 603 37,000  Level FlightAware ADS-B
Tue 16:43:35 41.1992 -104.8420 78° East 525 604 37,000  Level FlightAware ADS-B
Tue 16:43:52 41.2060 -104.7900 80° East 526 605 37,000  Level FlightAware ADS-B
Tue 16:44:06 41.2098 -104.7450 84° East 527 606 37,000  Level FlightAware ADS-B
Tue 16:44:24 41.2106 -104.6850 89° East 526 605 37,000  Level FlightAware ADS-B
Tue 16:44:55 41.2079 -104.5860 92° East 525 604 37,000  Level FlightAware ADS-B
Tue 16:45:27 41.2045 -104.4850 93° East 525 604 37,000  Level FlightAware ADS-B
Tue 16:46:00 41.2010 -104.3770 92° East 524 603 37,000  Level FlightAware ADS-B
Tue 16:46:30 41.1982 -104.2800 92° East 525 604 37,000  Level FlightAware ADS-B
Tue 16:47:01 41.1954 -104.1820 92° East 526 605 37,000  Level FlightAware ADS-B
Tue 16:47:31 41.1928 -104.0860 92° East 526 605 37,000  Level FlightAware ADS-B
Tue 16:48:01 41.1900 -103.9870 92° East 525 604 37,000  Level FlightAware ADS-B
Tue 16:48:34 41.1871 -103.8840 92° East 524 603 37,000  Level FlightAware ADS-B
Tue 16:49:08 41.1839 -103.7760 92° East 522 601 37,000  Level FlightAware ADS-B
Tue 16:49:42 41.1804 -103.6640 92° East 523 602 37,000  Level FlightAware ADS-B
Tue 16:50:13 41.1773 -103.5670 92° East 523 602 37,000  Level FlightAware ADS-B
Tue 16:50:43 41.1740 -103.4690 93° East 523 602 37,000  Level FlightAware ADS-B
Tue 16:51:16 41.1704 -103.3660 93° East 523 602 37,000  Level FlightAware ADS-B
Tue 16:51:46 41.1669 -103.2680 93° East 523 602 37,000  Level FlightAware ADS-B
Tue 16:52:16 41.1634 -103.1720 93° East 523 602 37,000  Level FlightAware ADS-B
Tue 16:52:46 41.1599 -103.0760 93° East 520 598 37,000  Level FlightAware ADS-B
Tue 16:53:17 41.1562 -102.9810 93° East 519 597 37,000  Level FlightAware ADS-B
Tue 16:53:47 41.1525 -102.8830 93° East 518 596 37,000  Level FlightAware ADS-B
Tue 16:54:20 41.1484 -102.7810 93° East 518 596 37,000  Level FlightAware ADS-B
Tue 16:55:02 41.1430 -102.6480 93° East 518 596 37,000  Level FlightAware ADS-B
Tue 16:55:33 41.1390 -102.5500 93° East 517 595 37,000  Level FlightAware ADS-B
Tue 16:55:39 41.1381 -102.5310 94° East 517 595 37,000  Level FlightAware ADS-B
Tue 16:56:14 41.1330 -102.4230 94° East 516 594 37,000  Level FlightAware ADS-B
Tue 16:56:24 41.1320 -102.3890 92° East 516 594 37,000  Level FlightAware ADS-B
Tue 16:56:56 41.1276 -102.2890 93° East 519 597 37,000  Level FlightAware ADS-B
Tue 16:57:27 41.1232 -102.1900 93° East 518 596 37,000  Level FlightAware ADS-B
Tue 16:57:57 41.1188 -102.0940 93° East 520 598 37,000  Level FlightAware ADS-B
Tue 16:58:27 41.1143 -101.9980 94° East 520 598 37,000  Level FlightAware ADS-B
Tue 16:59:19 41.1065 -101.8340 94° East 519 597 37,000  Level FlightAware ADS-B
Tue 17:00:07 41.0991 -101.6820 94° East 520 598 37,000  Level FlightAware ADS-B
Tue 17:00:55 41.0915 -101.5320 94° East 520 598 37,000  Level FlightAware ADS-B
Tue 17:01:25 41.0865 -101.4370 94° East 520 598 37,000  Level FlightAware ADS-B
Tue 17:01:57 41.0811 -101.3330 94° East 521 600 37,000  Level FlightAware ADS-B
Tue 17:02:28 41.0760 -101.2370 94° East 520 598 37,000  Level FlightAware ADS-B
Tue 17:03:10 41.0703 -101.1278 94° East 519 597 37,000  Level Denver Center
Tue 17:08:36 41.0374 -100.0680 94° East 520 598 37,000  Level FlightAware ADS-B
Tue 17:09:07 41.0354 -99.9695 92° East 520 598 37,000  Level FlightAware ADS-B
Tue 17:09:37 41.0334 -99.8733 92° East 520 598 37,000  Level FlightAware ADS-B
Tue 17:10:08 41.0312 -99.7755 92° East 518 596 37,000  Level FlightAware ADS-B
Tue 17:11:25 41.0256 -99.5319 92° East 518 596 37,000  Level FlightAware ADS-B
Tue 17:11:56 41.0232 -99.4359 92° East 517 595 37,000  Level FlightAware ADS-B
Tue 17:12:26 41.0208 -99.3408 92° East 518 596 37,000  Level FlightAware ADS-B
Tue 17:12:57 41.0182 -99.2427 92° East 518 596 37,000  Level FlightAware ADS-B
Tue 17:13:28 41.0155 -99.1453 92° East 518 596 37,000  Level FlightAware ADS-B
Tue 17:14:17 41.0110 -98.9960 92° East 517 595 37,000  Level FlightAware ADS-B
Tue 17:14:38 41.0092 -98.9246 92° East 517 595 37,000  Level FlightAware ADS-B
Tue 17:15:08 41.0063 -98.8298 92° East 516 594 37,000  Level FlightAware ADS-B
Tue 17:15:38 41.0034 -98.7346 92° East 516 594 37,000  Level FlightAware ADS-B
Tue 17:16:08 41.0004 -98.6403 92° East 515 593 37,000  Level FlightAware ADS-B
Tue 17:16:42 40.9970 -98.5370 92° East 516 594 37,000  Level FlightAware ADS-B
Tue 17:16:58 40.9953 -98.4814 92° East 517 595 37,000  Level FlightAware ADS-B
Tue 17:17:29 40.9920 -98.3851 93° East 517 595 37,000  Level FlightAware ADS-B
Tue 17:18:02 40.9884 -98.2819 93° East 517 595 37,000  Level FlightAware ADS-B
Tue 17:18:41 40.9840 -98.1588 93° East 517 595 37,000  Level FlightAware ADS-B
Tue 17:19:11 40.9805 -98.0643 93° East 517 595 37,000  Level FlightAware ADS-B
Tue 17:19:41 40.9770 -97.9690 93° East 516 594 37,000  Level FlightAware ADS-B
Tue 17:20:14 40.9730 -97.8651 93° East 516 594 37,000  Level FlightAware ADS-B
Tue 17:20:45 40.9693 -97.7705 93° East 514 592 37,000  Level FlightAware ADS-B
Tue 17:21:15 40.9654 -97.6750 93° East 514 592 37,000  Level FlightAware ADS-B
Tue 17:21:45 40.9616 -97.5811 93° East 514 592 37,000  Level FlightAware ADS-B
Tue 17:22:18 40.9572 -97.4774 93° East 515 593 37,000  Level FlightAware ADS-B
Tue 17:22:49 40.9532 -97.3828 93° East 514 592 37,000  Level FlightAware ADS-B
Tue 17:23:19 40.9491 -97.2874 93° East 514 592 37,000  Level FlightAware ADS-B
Tue 17:23:50 40.9448 -97.1917 93° East 514 592 37,000  Level FlightAware ADS-B
Tue 17:24:21 40.9403 -97.0925 93° East 514 592 37,000  Level FlightAware ADS-B
Tue 17:24:52 40.9358 -96.9956 93° East 513 590 37,000  Level FlightAware ADS-B
Tue 17:25:24 40.9312 -96.8970 94° East 512 589 37,000  Level FlightAware ADS-B
Tue 17:25:55 40.9266 -96.8008 94° East 511 588 37,000  Level FlightAware ADS-B
Tue 17:26:25 40.9196 -96.7064 96° East 510 587 37,000  Level FlightAware ADS-B
Tue 17:26:56 40.9102 -96.6113 97° East 509 586 37,000  Level FlightAware ADS-B
Tue 17:27:27 40.9001 -96.5165 98° East 508 585 37,000  Level FlightAware ADS-B
Tue 17:27:57 40.8900 -96.4235 98° East 507 583 37,000  Level FlightAware ADS-B
Tue 17:28:29 40.8793 -96.3259 98° East 507 583 37,000  Level FlightAware ADS-B
Tue 17:29:00 40.8690 -96.2328 98° East 506 582 37,000  Level FlightAware ADS-B
Tue 17:29:30 40.8589 -96.1407 98° East 506 582 37,000  Level FlightAware ADS-B
Tue 17:30:00 40.8488 -96.0496 98° East 505 581 37,000  Level FlightAware ADS-B
Tue 17:30:31 40.8382 -95.9549 98° East 505 581 37,000  Level FlightAware ADS-B
Tue 17:31:01 40.8280 -95.8646 98° East 504 580 37,000  Level FlightAware ADS-B
Tue 17:31:32 40.8173 -95.7707 99° East 505 581 37,000  Level FlightAware ADS-B
Tue 17:32:02 40.8067 -95.6780 99° East 505 581 37,000  Level FlightAware ADS-B
Tue 17:32:32 40.7962 -95.5869 99° East 505 581 37,000  Level FlightAware ADS-B
Tue 17:33:04 40.7849 -95.4895 99° East 505 581 37,000  Level FlightAware ADS-B
Tue 17:33:39 40.7726 -95.3845 99° East 505 581 37,000  Level FlightAware ADS-B
Tue 17:34:09 40.7618 -95.2932 99° East 505 581 37,000  Level FlightAware ADS-B
Tue 17:34:39 40.7508 -95.2007 99° East 505 581 37,000  Level FlightAware ADS-B
Tue 17:35:10 40.7397 -95.1082 99° East 505 581 37,000  Level FlightAware ADS-B
Tue 17:35:41 40.7285 -95.0151 99° East 505 581 37,000  Level FlightAware ADS-B
Tue 17:36:11 40.7172 -94.9217 99° East 505 581 37,000  Level FlightAware ADS-B
Tue 17:36:41 40.7060 -94.8304 99° East 505 581 37,000  Level FlightAware ADS-B
Tue 17:37:12 40.6947 -94.7382 99° East 504 580 37,000  Level FlightAware ADS-B
Tue 17:37:42 40.6833 -94.6462 99° East 504 580 37,000  Level FlightAware ADS-B
Tue 17:38:13 40.6717 -94.5533 99° East 503 579 37,000  Level FlightAware ADS-B
Tue 17:38:43 40.6603 -94.4623 99° East 502 578 37,000  Level FlightAware ADS-B
Tue 17:39:14 40.6485 -94.3692 99° East 501 577 37,000  Level FlightAware ADS-B
Tue 17:39:45 40.6370 -94.2784 99° East 500 575 37,000  Level FlightAware ADS-B
Tue 17:40:16 40.6251 -94.1860 100° East 499 574 37,000  Level FlightAware ADS-B
Tue 17:40:46 40.6134 -94.0953 100° East 498 573 37,000  Level FlightAware ADS-B
Tue 17:41:16 40.6018 -94.0061 100° East 497 572 37,000  Level FlightAware ADS-B
Tue 17:41:45 40.5903 -93.9207 100° East 495 570 37,000  Level FlightAware ADS-B
Tue 17:42:16 40.5756 -93.8288 102° East 494 568 37,000  Level FlightAware ADS-B
Tue 17:43:03 40.5535 -93.6930 102° East 494 568 37,000  Level FlightAware ADS-B
Tue 17:43:35 40.5385 -93.5997 102° East 492 566 37,000  Level FlightAware ADS-B
Tue 17:44:06 40.5239 -93.5088 102° East 493 567 37,000  Level FlightAware ADS-B
Tue 17:44:37 40.5094 -93.4182 102° East 492 566 37,000  Level FlightAware ADS-B
Tue 17:45:07 40.4950 -93.3284 102° East 492 566 37,000  Level FlightAware ADS-B
Tue 17:45:22 40.4883 -93.2862 102° East 491 565 37,000  Level FlightAware ADS-B
Tue 17:45:52 40.4775 -93.1973 99° East 491 565 37,000  Level FlightAware ADS-B
Tue 17:46:22 40.4695 -93.1083 97° East 491 565 37,000  Level FlightAware ADS-B
Tue 17:46:53 40.4629 -93.0194 96° East 490 564 37,000  Level FlightAware ADS-B
Tue 17:47:23 40.4568 -92.9290 95° East 491 565 37,000  Level FlightAware ADS-B
Tue 17:47:56 40.4504 -92.8304 95° East 491 565 37,000  Level FlightAware ADS-B
Tue 17:48:27 40.4444 -92.7401 95° East 491 565 37,000  Level FlightAware ADS-B
Tue 17:49:28 40.4320 -92.5600 95° East 491 565 37,000  Level FlightAware ADS-B
Tue 17:50:10 40.4230 -92.4350 95° East 492 566 37,000  Level FlightAware ADS-B
Tue 17:50:48 40.4150 -92.3240 95° East 491 565 37,000  Level FlightAware ADS-B
Tue 17:51:34 40.4050 -92.1870 95° East 492 566 37,000  Level FlightAware ADS-B
Tue 17:52:15 40.3950 -92.0650 96° East 492 566 37,000  Level FlightAware ADS-B
Tue 17:52:58 40.3860 -91.9390 95° East 492 566 37,000  Level FlightAware ADS-B
Tue 17:53:32 40.3800 -91.8530 95° East 492 566 37,000  Level FlightAware ADS-B
Tue 17:54:23 40.3660 -91.6890 96° East 490 564 37,000  Level FlightAware ADS-B
Tue 17:55:00 40.3570 -91.5810 96° East 490 564 37,000  Level FlightAware ADS-B
Tue 17:55:45 40.3460 -91.4450 96° East 490 564 37,000  Level FlightAware ADS-B
Tue 17:56:22 40.3370 -91.3360 96° East 488 562 37,000  Level FlightAware ADS-B
Tue 17:57:11 40.3250 -91.1920 96° East 487 560 37,000  Level FlightAware ADS-B
Tue 17:57:52 40.3150 -91.0730 96° East 487 560 37,000  Level FlightAware ADS-B
Tue 17:58:37 40.3040 -90.9420 96° East 486 559 37,000  Level FlightAware ADS-B
Tue 17:59:14 40.2950 -90.8370 96° East 485 558 37,000  Level FlightAware ADS-B
Tue 17:59:53 40.2850 -90.7240 97° East 485 558 37,000  Level FlightAware ADS-B
Tue 18:01:09 40.2650 -90.5050 97° East 484 557 37,000  Level FlightAware ADS-B
Tue 18:01:56 40.2530 -90.3650 96° East 482 555 37,000  Level FlightAware ADS-B
Tue 18:02:30 40.2440 -90.2660 97° East 482 555 37,000  Level FlightAware ADS-B
Tue 18:03:15 40.2310 -90.1340 97° East 481 554 37,000  Level FlightAware ADS-B
Tue 18:03:56 40.2210 -90.0190 96° East 481 554 37,000  Level FlightAware ADS-B
Tue 18:04:28 40.2120 -89.9270 97° East 482 555 37,000  Level FlightAware ADS-B
Tue 18:05:14 40.1990 -89.7950 97° East 483 556 37,000  Level FlightAware ADS-B
Tue 18:05:54 40.1880 -89.6790 97° East 482 555 37,000  Level FlightAware ADS-B
Tue 18:06:36 40.1760 -89.5560 97° East 482 555 37,000  Level FlightAware ADS-B
Tue 18:07:18 40.1640 -89.4350 97° East 481 554 37,000  Level FlightAware ADS-B
Tue 18:07:56 40.1530 -89.3260 97° East 480 552 37,000  Level FlightAware ADS-B
Tue 18:08:43 40.1390 -89.1890 98° East 479 551 37,000  Level FlightAware ADS-B
Tue 18:09:22 40.1280 -89.0800 97° East 477 549 37,000  Level FlightAware ADS-B
Tue 18:10:02 40.1160 -88.9640 98° East 477 549 37,000  Level FlightAware ADS-B
Tue 18:10:44 40.1040 -88.8490 98° East 476 548 37,000  Level FlightAware ADS-B
Tue 18:11:53 40.0860 -88.6860 98° East 476 548 37,000  Level FlightAware ADS-B
Tue 18:12:32 40.0710 -88.5420 98° East 475 547 37,000  Level FlightAware ADS-B
Tue 18:13:14 40.0580 -88.4230 98° East 474 545 37,000  Level FlightAware ADS-B
Tue 18:13:55 40.0450 -88.3020 98° East 473 544 37,000  Level FlightAware ADS-B
Tue 18:14:31 40.0340 -88.2020 98° East 474 545 37,000  Level FlightAware ADS-B
Tue 18:14:53 40.0270 -88.1400 98° East 473 544 37,000  Level FlightAware ADS-B
Tue 18:15:44 40.0140 -88.0280 99° East 474 545 37,000  Level FlightAware ADS-B
Tue 18:17:56 39.9730 -87.6660 98° East 475 547 37,000  Level FlightAware ADS-B
Tue 18:18:37 39.9590 -87.5480 99° East 475 547 37,000  Level FlightAware ADS-B
Tue 18:19:21 39.9400 -87.3830 98° East 474 545 37,000  Level FlightAware ADS-B
Tue 18:20:01 39.9260 -87.2710 99° East 474 545 37,000  Level FlightAware ADS-B
Tue 18:20:45 39.9110 -87.1470 99° East 473 544 37,000  Level FlightAware ADS-B
Tue 18:21:29 39.8970 -87.0240 98° East 472 543 37,000  Level FlightAware ADS-B
Tue 18:22:11 39.8820 -86.9080 100° East 470 541 37,000  Level FlightAware ADS-B
Tue 18:22:53 39.8730 -86.7870 95° East 470 541 37,000  Level FlightAware ADS-B
Tue 18:23:29 39.8790 -86.6860 86° East 471 542 37,000  Level FlightAware ADS-B
Tue 18:24:15 39.8890 -86.5570 84° East 471 542 37,000  Level FlightAware ADS-B
Tue 18:24:59 39.8990 -86.4350 84° East 470 541 37,000  Level FlightAware ADS-B
Tue 18:25:37 39.8900 -86.3280 96° East 468 539 37,000  Level FlightAware ADS-B
Tue 18:26:23 39.8460 -86.2100 116° Southeast 469 540 37,000  Level FlightAware ADS-B
Tue 18:27:01 39.8070 -86.1170 119° Southeast 468 539 37,000  Level FlightAware ADS-B
Tue 18:27:45 39.7620 -86.0090 118° Southeast 465 535 37,000  Level FlightAware ADS-B
Tue 18:28:27 39.7090 -85.9180 127° Southeast 465 535 37,000  Level FlightAware ADS-B
Tue 18:29:11 39.6430 -85.8250 133° Southeast 465 535 37,000  Level FlightAware ADS-B
Tue 18:29:53 39.5820 -85.7380 132° Southeast 465 535 37,000  Level FlightAware ADS-B
Tue 18:30:33 39.5250 -85.6570 132° Southeast 467 537 37,000  Level FlightAware ADS-B
Tue 18:31:13 39.4620 -85.5780 136° Southeast 473 544 37,000  Level FlightAware ADS-B
Tue 18:31:59 39.3840 -85.5020 143° Southeast 476 548 37,000  Level FlightAware ADS-B
Tue 18:32:29 39.3270 -85.4550 147° Southeast 477 549 37,000  Level FlightAware ADS-B
Tue 18:33:15 39.2350 -85.3960 154° Southeast 480 552 37,000  Level FlightAware ADS-B
Tue 18:33:53 39.1580 -85.3570 159° South 480 552 37,000  Level FlightAware ADS-B
Tue 18:34:30 39.0800 -85.3210 160° South 481 554 37,000  Level FlightAware ADS-B
Tue 18:35:14 38.9860 -85.2810 162° South 482 555 37,000  Level FlightAware ADS-B
Tue 18:35:54 38.9000 -85.2460 162° South 485 558 37,000  Level FlightAware ADS-B
Tue 18:36:40 38.8010 -85.2050 162° South 485 558 37,000  Level FlightAware ADS-B
Tue 18:37:20 38.7170 -85.1660 160° South 483 556 37,000  Level FlightAware ADS-B
Tue 18:38:00 38.6500 -85.0950 140° Southeast 475 547 37,000  Level FlightAware ADS-B
Tue 18:38:44 38.6050 -84.9860 118° Southeast 471 542 37,000  Level FlightAware ADS-B
Tue 18:39:20 38.5840 -84.8920 106° East 469 540 37,000  Level FlightAware ADS-B
Tue 18:40:10 38.5600 -84.7680 104° East 469 540 37,000  Level FlightAware ADS-B
Tue 18:40:58 38.5380 -84.6580 104° East 469 540 37,000  Level FlightAware ADS-B
Tue 18:41:34 38.5220 -84.5760 104° East 469 540 37,000  Level FlightAware ADS-B
Tue 18:42:10 38.5060 -84.4930 104° East 469 540 37,000  Level FlightAware ADS-B
Tue 18:42:48 38.4740 -84.3370 105° East 463 533 37,000  Level FlightAware ADS-B
Tue 18:44:19 38.4260 -84.0990 104° East 458 527 37,000  Level FlightAware ADS-B
Tue 18:44:58 38.4090 -84.0120 104° East 458 527 37,000  Level FlightAware ADS-B
Tue 18:45:44 38.3810 -83.8780 105° East 458 527 37,000  Level FlightAware ADS-B
Tue 18:46:22 38.3610 -83.7780 104° East 458 527 37,000  Level FlightAware ADS-B
Tue 18:47:00 38.3400 -83.6760 105° East 461 531 37,000  Level FlightAware ADS-B
Tue 18:47:38 38.3230 -83.5910 104° East 461 531 37,000  Level FlightAware ADS-B
Tue 18:48:38 38.2970 -83.4560 104° East 461 531 37,000  Level FlightAware ADS-B
Tue 18:48:58 38.2755 -83.3670 107° East 462 532 37,000  Level FlightAware ADS-B
Tue 18:50:11 38.2360 -83.1790 105° East 462 532 37,000  Level FlightAware ADS-B
Tue 18:50:46 38.2160 -83.0840 105° East 463 533 37,000  Level FlightAware ADS-B
Tue 18:51:26 38.1930 -82.9780 105° East 465 535 37,000 532 Level FlightAware ADS-B
Tue 18:52:05 38.1720 -82.8800 105° East 464 534 37,700 1,034 Climbing FlightAware ADS-B
Tue 18:52:53 38.1450 -82.7520 105° East 464 534 38,500 897 Climbing FlightAware ADS-B
Tue 18:53:32 38.1230 -82.6500 105° East 460 529 39,000 441 Climbing FlightAware ADS-B
Tue 18:54:01 38.1059 -82.5731 106° East 451 519 39,000  Level FlightAware ADS-B
Tue 18:54:35 38.0873 -82.4879 105° East 447 514 39,000  Level FlightAware ADS-B
Tue 18:55:20 38.0625 -82.3737 105° East 452 520 39,000  Level FlightAware ADS-B
Tue 18:55:52 38.0445 -82.2917 106° East 462 532 39,000  Level FlightAware ADS-B
Tue 18:56:22 38.0269 -82.2123 106° East 467 537 39,000  Level FlightAware ADS-B
Tue 18:56:53 38.0085 -82.1292 106° East 470 541 39,000  Level FlightAware ADS-B
Tue 18:57:24 37.9906 -82.0490 106° East 471 542 39,000  Level FlightAware ADS-B
Tue 18:57:54 37.9729 -81.9695 106° East 472 543 39,000  Level FlightAware ADS-B
Tue 18:58:42 37.9439 -81.8403 106° East 472 543 39,000  Level FlightAware ADS-B
Tue 18:59:45 37.9070 -81.6760 106° East 471 542 39,000  Level FlightAware ADS-B
Tue 19:00:20 37.8859 -81.5832 106° East 471 542 39,000  Level FlightAware ADS-B
Tue 19:00:52 37.8661 -81.4965 106° East 471 542 39,000  Level FlightAware ADS-B
Tue 19:01:25 37.8463 -81.4097 106° East 472 543 39,000  Level FlightAware ADS-B
Tue 19:02:20 37.8132 -81.2655 106° East 471 542 39,000  Level FlightAware ADS-B
Tue 19:03:00 37.7900 -81.1600 106° East 465 535 39,000  Level FlightAware ADS-B
Tue 19:03:56 37.7880 -81.0120 91° East 455 524 39,000  Level FlightAware ADS-B
Tue 19:04:37 37.7950 -80.9030 85° East 456 525 39,000  Level FlightAware ADS-B
Tue 19:05:21 37.8030 -80.7880 85° East 457 526 39,000  Level FlightAware ADS-B
Tue 19:06:01 37.8100 -80.6810 85° East 457 526 39,000  Level FlightAware ADS-B
Tue 19:06:42 37.8170 -80.5710 85° East 458 527 39,000  Level FlightAware ADS-B
Tue 19:07:22 37.8230 -80.4650 86° East 459 528 39,000  Level FlightAware ADS-B
Tue 19:08:02 37.8300 -80.3610 85° East 459 528 39,000  Level FlightAware ADS-B
Tue 19:08:42 37.8370 -80.2520 85° East 459 528 39,000  Level FlightAware ADS-B
Tue 19:09:23 37.8430 -80.1420 86° East 459 528 39,000  Level FlightAware ADS-B
Tue 19:09:59 37.8490 -80.0490 85° East 459 528 39,000  Level FlightAware ADS-B
Tue 19:10:42 37.8560 -79.9310 86° East 460 529 39,000  Level FlightAware ADS-B
Tue 19:11:50 37.8660 -79.7470 86° East 462 532 39,000  Level FlightAware ADS-B
Tue 19:12:48 37.8750 -79.5920 86° East 462 532 39,000  Level FlightAware ADS-B
Tue 19:13:24 37.8800 -79.4970 86° East 462 532 39,000  Level FlightAware ADS-B
Tue 19:14:22 37.8880 -79.3450 86° East 462 532 39,000  Level FlightAware ADS-B
Tue 19:15:02 37.8940 -79.2310 86° East 461 531 39,000  Level FlightAware ADS-B
Tue 19:15:58 37.8910 -79.0810 91° East 469 540 39,000  Level FlightAware ADS-B
Tue 19:16:30 37.8690 -78.9950 108° East 471 542 39,000  Level FlightAware ADS-B
Tue 19:17:14 37.8370 -78.8820 110° East 472 543 39,000  Level FlightAware ADS-B
Tue 19:17:54 37.8070 -78.7790 110° East 472 543 39,000  Level FlightAware ADS-B
Tue 19:18:36 37.7760 -78.6710 110° East 472 543 39,000  Level FlightAware ADS-B
Tue 19:19:18 37.7440 -78.5630 111° Southeast 472 543 39,000  Level FlightAware ADS-B
Tue 19:20:02 37.7100 -78.4460 110° East 473 544 39,000  Level FlightAware ADS-B
Tue 19:20:44 37.6790 -78.3370 110° East 474 545 39,000  Level FlightAware ADS-B
Tue 19:21:26 37.6470 -78.2300 111° Southeast 474 545 39,000  Level FlightAware ADS-B
Tue 19:22:06 37.6170 -78.1260 110° East 474 545 39,000  Level FlightAware ADS-B
Tue 19:22:52 37.5820 -78.0080 110° East 473 544 39,000  Level FlightAware ADS-B
Tue 19:23:32 37.5510 -77.9040 111° Southeast 474 545 39,000  Level FlightAware ADS-B
Tue 19:24:16 37.5270 -77.7890 105° East 470 541 39,000  Level FlightAware ADS-B
Tue 19:24:56 37.5180 -77.6800 96° East 468 539 39,000  Level FlightAware ADS-B
Tue 19:25:05 37.5161 -77.6544 95° East 469 540 39,000  Level FlightAware ADS-B
Tue 19:25:35 37.5108 -77.5730 95° East 469 540 39,000  Level FlightAware ADS-B
Tue 19:26:18 37.5030 -77.4560 95° East 468 539 39,000  Level FlightAware ADS-B
Tue 19:26:41 37.4989 -77.3939 95° East 469 540 39,000  Level FlightAware ADS-B
Tue 19:27:17 37.4919 -77.2955 95° East 469 540 39,000  Level FlightAware ADS-B
Tue 19:28:13 37.4608 -77.1478 105° East 469 540 39,000  Level FlightAware ADS-B
Tue 19:29:02 37.4220 -77.0260 112° Southeast 470 541 39,000  Level FlightAware ADS-B
Tue 19:29:44 37.3870 -76.9180 112° Southeast 470 541 39,000  Level FlightAware ADS-B
Tue 19:30:23 37.3550 -76.8220 113° Southeast 470 541 39,000  Level FlightAware ADS-B
Tue 19:30:57 37.3220 -76.7380 116° Southeast 470 541 39,000  Level FlightAware ADS-B
Tue 19:31:39 37.2810 -76.6350 117° Southeast 470 541 39,000  Level FlightAware ADS-B
Tue 19:32:26 37.2355 -76.5185 116° Southeast 472 543 39,000  Level FlightAware ADS-B
Tue 19:33:02 37.2016 -76.4318 116° Southeast 473 544 39,000  Level FlightAware ADS-B
Tue 19:33:38 37.1655 -76.3419 117° Southeast 474 545 39,000  Level FlightAware ADS-B
Tue 19:34:13 37.1312 -76.2559 117° Southeast 476 548 39,000  Level FlightAware ADS-B
Tue 19:34:44 37.1010 -76.1805 117° Southeast 476 548 39,000  Level FlightAware ADS-B
Tue 19:35:16 37.0702 -76.1006 116° Southeast 474 545 39,000  Level FlightAware ADS-B
Tue 19:35:41 37.0514 -76.0379 111° Southeast 473 544 39,000  Level FlightAware ADS-B
Tue 19:35:53 37.0456 -76.0064 103° East 469 540 39,000  Level FlightAware ADS-B
Tue 19:36:07 37.0421 -75.9678 96° East 466 536 39,000  Level FlightAware ADS-B
Tue 19:36:17 37.0413 -75.9413 92° East 466 536 39,000  Level FlightAware ADS-B
Tue 19:36:43 37.0454 -75.8718 86° East 464 534 39,000  Level FlightAware ADS-B
Tue 19:36:55 37.0502 -75.8405 79° East 464 534 39,000  Level FlightAware ADS-B
Tue 19:37:26 37.0697 -75.7616 73° East 461 531 39,000  Level FlightAware ADS-B
Tue 19:37:59 37.0350 -75.6940 123° Southeast 468 539 39,000  Level FlightAware ADS-B
Tue 19:38:08 37.1130 -75.6660 16° North 450 518 39,000  Level FlightAware ADS-B
Tue 19:38:57 37.1680 -75.5830 50° Northeast 450 518 39,000  Level FlightAware ADS-B
Tue 19:39:33 37.2090 -75.5220 50° Northeast 450 518 39,000  Level FlightAware ADS-B
Tue 19:40:22 37.2650 -75.4380 50° Northeast 450 518 39,000  Level FlightAware ADS-B
Tue 19:40:58 37.3060 -75.3770 50° Northeast 450 518 39,000 -1,385 Level FlightAware ADS-B
Tue 19:41:14 37.4480 -75.4900 328° Northwest 423 487 37,800 -3,375 Descending FlightAware ADS-B
Tue 19:41:30 37.4824 -75.4761 18° North 431 496 37,200 -1,043 Descending FlightAware ADS-B
Tue 19:42:00 37.5405 -75.4522 18° North 443 510 37,000 -197 Descending FlightAware ADS-B
Tue 19:42:31 37.6007 -75.4276 18° North 446 513 37,000  Level FlightAware ADS-B
Tue 19:43:03 37.6642 -75.4013 18° North 450 518 37,000  Level FlightAware ADS-B
Tue 19:43:33 37.7242 -75.3765 18° North 453 521 37,000  Level FlightAware ADS-B
Tue 19:44:43 37.8530 -75.3230 18° North 458 527 37,000  Level FlightAware ADS-B
Tue 19:45:29 37.9550 -75.2810 18° North 458 527 37,000  Level FlightAware ADS-B
Tue 19:45:41 37.9800 -75.2707 18° North 460 529 37,000  Level FlightAware ADS-B
Tue 19:46:13 38.0457 -75.2434 18° North 460 529 37,000  Level FlightAware ADS-B
Tue 19:46:44 38.1068 -75.2180 18° North 460 529 37,000  Level FlightAware ADS-B
Tue 19:47:33 38.2060 -75.1770 18° North 457 526 37,000  Level FlightAware ADS-B
Tue 19:47:43 38.2274 -75.1676 19° North 458 527 37,000  Level FlightAware ADS-B
Tue 19:48:15 38.2918 -75.1408 18° North 458 527 37,000  Level FlightAware ADS-B
Tue 19:48:46 38.3530 -75.1151 18° North 458 527 37,000  Level FlightAware ADS-B
Tue 19:49:44 38.4708 -75.0656 18° North 459 528 37,000  Level FlightAware ADS-B
Tue 19:50:15 38.5321 -75.0397 18° North 459 528 37,000  Level FlightAware ADS-B
Tue 19:50:46 38.5942 -75.0135 18° North 459 528 37,000  Level FlightAware ADS-B
Tue 19:51:26 38.6766 -74.9787 18° North 459 528 37,000  Level FlightAware ADS-B
Tue 19:51:56 38.7372 -74.9530 18° North 457 526 37,000  Level FlightAware ADS-B
Tue 19:52:29 38.8029 -74.9252 18° North 456 525 37,000  Level FlightAware ADS-B
Tue 19:53:00 38.8636 -74.8993 18° North 454 522 37,000 -98 Level FlightAware ADS-B
Tue 19:53:30 38.9240 -74.8735 18° North 451 519 36,900 -689 Descending FlightAware ADS-B
Tue 19:54:01 38.9849 -74.8474 18° North 442 509 36,300 -2,516 Descending FlightAware ADS-B
Tue 19:54:32 39.0431 -74.8226 18° North 435 501 34,300 -4,200 Descending FlightAware ADS-B
Tue 19:54:41 39.0608 -74.8148 19° North 440 506 33,500 -5,111 Descending FlightAware ADS-B
Tue 19:54:59 39.0938 -74.7950 25° Northeast 447 514 32,000 -5,538 Descending FlightAware ADS-B
Tue 19:55:20 39.1310 -74.7626 34° Northeast 457 526 29,900 -4,941 Descending FlightAware ADS-B
Tue 19:55:50 39.1802 -74.7105 39° Northeast 451 519 27,800 -3,871 Descending FlightAware ADS-B
Tue 19:56:22 39.2293 -74.6565 40° Northeast 439 505 25,900 -3,524 Descending FlightAware ADS-B
Tue 19:56:53 39.2768 -74.6042 40° Northeast 438 504 24,100 -3,194 Descending FlightAware ADS-B
Tue 19:57:24 39.3253 -74.5512 40° Northeast 438 504 22,600 -2,613 Descending FlightAware ADS-B
Tue 19:57:55 39.3729 -74.4995 40° Northeast 430 495 21,400 -2,361 Descending FlightAware ADS-B
Tue 19:58:25 39.4186 -74.4498 40° Northeast 419 482 20,200 -2,516 Descending FlightAware ADS-B
Tue 19:58:57 39.4654 -74.3989 40° Northeast 414 476 18,800 -1,970 Descending FlightAware ADS-B
Tue 19:59:32 39.5166 -74.3430 40° Northeast 417 480 18,000 -738 Descending FlightAware ADS-B
Tue 20:00:02 39.5609 -74.2946 40° Northeast 417 480 18,000 -98 Level FlightAware ADS-B
Tue 20:00:33 39.6057 -74.2455 40° Northeast 414 476 17,900 -1,235 Descending FlightAware ADS-B
Tue 20:01:10 39.6599 -74.1858 40° Northeast 407 468 16,600 -2,174 Descending FlightAware ADS-B
Tue 20:01:42 39.7041 -74.1369 40° Northeast 397 457 15,400 -2,286 Descending FlightAware ADS-B
Tue 20:02:13 39.7477 -74.0889 40° Northeast 391 450 14,200 -2,361 Descending FlightAware ADS-B
Tue 20:02:43 39.7892 -74.0431 40° Northeast 384 442 13,000 -1,800 Descending FlightAware ADS-B
Tue 20:03:23 39.8440 -73.9862 39° Northeast 387 445 12,100 -1,138 Descending FlightAware ADS-B
Tue 20:03:41 39.8710 -73.9645 32° Northeast 385 443 11,900 -612 Descending FlightAware ADS-B
Tue 20:04:12 39.9200 -73.9293 29° Northeast 383 441 11,600 -677 Descending FlightAware ADS-B
Tue 20:04:43 39.9676 -73.8960 28° Northeast 381 438 11,200 -677 Descending FlightAware ADS-B
Tue 20:05:14 40.0130 -73.8640 28° Northeast 340 391 10,900 -391 Descending FlightAware ADS-B
Tue 20:05:29 40.0337 -73.8497 28° Northeast 317 365 10,900  Level FlightAware ADS-B
Tue 20:05:47 40.0581 -73.8418 14° North 310 357 10,900  Level FlightAware ADS-B
Tue 20:06:00 40.0767 -73.8414 North 310 357 10,900 -698 Level FlightAware ADS-B
Tue 20:06:30 40.1201 -73.8420 359° North 305 351 10,400 -1,053 Descending FlightAware ADS-B
Tue 20:06:57 40.1570 -73.8427 359° North 299 344 9,900 -1,200 Descending FlightAware ADS-B
Tue 20:07:15 40.1815 -73.8430 359° North 296 341 9,500 -1,297 Descending FlightAware ADS-B
Tue 20:07:34 40.2074 -73.8431 360° North 295 339 9,100 -1,500 Descending FlightAware ADS-B
Tue 20:07:43 40.2202 -73.8417 North 296 341 8,800 -1,846 Descending FlightAware ADS-B
Tue 20:07:47 40.2255 -73.8399 15° North 298 343 8,700 -1,333 Descending FlightAware ADS-B
Tue 20:08:01 40.2423 -73.8279 29° Northeast 299 344 8,400 -1,250 Descending FlightAware ADS-B
Tue 20:08:11 40.2513 -73.8146 48° Northeast 296 341 8,200 -1,200 Descending FlightAware ADS-B
Tue 20:08:21 40.2572 -73.7976 66° East 294 338 8,000 -1,286 Descending FlightAware ADS-B
Tue 20:08:25 40.2583 -73.7909 78° East 293 337 7,900 -1,200 Descending FlightAware ADS-B
Tue 20:08:31 40.2589 -73.7802 86° East 291 335 7,800 -857 Descending FlightAware ADS-B
Tue 20:08:39 40.2578 -73.7676 97° East 289 333 7,700 -1,364 Descending FlightAware ADS-B
Tue 20:08:53 40.2531 -73.7436 104° East 288 331 7,300 -1,421 Descending FlightAware ADS-B
Tue 20:09:17 40.2506 -73.7029 95° East 289 333 6,800 -1,200 Descending FlightAware ADS-B
Tue 20:09:23 40.2532 -73.6927 72° East 289 333 6,700 -1,333 Descending FlightAware ADS-B
Tue 20:09:35 40.2628 -73.6747 55° Northeast 289 333 6,400 -1,500 Descending FlightAware ADS-B
Tue 20:09:43 40.2711 -73.6663 38° Northeast 287 330 6,200 -1,429 Descending FlightAware ADS-B
Tue 20:09:56 40.2853 -73.6553 31° Northeast 286 329 5,900 -1,333 Descending FlightAware ADS-B
Tue 20:10:10 40.2998 -73.6396 40° Northeast 287 330 5,600 -1,167 Descending FlightAware ADS-B
Tue 20:10:32 40.3197 -73.6115 47° Northeast 285 328 5,200 -1,183 Descending FlightAware ADS-B
Tue 20:11:21 40.3670 -73.5610 39° Northeast 274 315 4,200 -1,147 Descending FlightAware ADS-B
Tue 20:11:40 40.3910 -73.5485 22° Northeast 271 312 3,900 -316 Descending FlightAware ADS-B
Tue 20:12:18 40.4360 -73.5360 12° North 273 314 3,900  Level FlightAware ADS-B
Tue 20:12:49 40.4700 -73.5120 28° Northeast 275 316 3,900  Level FlightAware ADS-B
Tue 20:13:17 40.5040 -73.4890 27° Northeast 274 315 3,900  Level FlightAware ADS-B
Tue 20:13:30 40.5190 -73.4780 29° Northeast 275 316 3,900  Level FlightAware ADS-B
Tue 20:13:57 40.5480 -73.4580 28° Northeast 274 315 3,900  Level FlightAware ADS-B
Tue 20:14:23 40.5770 -73.4370 29° Northeast 276 318 3,900  Level FlightAware ADS-B
Tue 20:14:47 40.6050 -73.4180 27° Northeast 276 318 3,900  Level FlightAware ADS-B
Tue 20:15:03 40.6220 -73.4060 28° Northeast 277 319 3,900  Level FlightAware ADS-B
Tue 20:15:31 40.6550 -73.3820 29° Northeast 278 320 3,900  Level FlightAware ADS-B
Tue 20:15:59 40.6870 -73.3640 23° Northeast 275 316 3,900  Level FlightAware ADS-B
Tue 20:16:31 40.7220 -73.3810 340° North 242 278 3,900  Level FlightAware ADS-B
Tue 20:16:47 40.7330 -73.3980 310° West 223 257 3,900 -571 Level FlightAware ADS-B
Tue 20:17:13 40.7500 -73.4260 309° West 216 249 3,500 -1,038 Descending FlightAware ADS-B
Tue 20:17:39 40.7650 -73.4510 308° West 216 249 3,000 -857 Descending FlightAware ADS-B
Tue 20:17:55 40.7760 -73.4680 311° West 218 251 2,900 -154 Descending FlightAware ADS-B
Tue 20:18:18 40.7890 -73.4910 307° West 218 251 2,900  Level FlightAware ADS-B
Tue 20:18:31 40.7920 -73.5090 282° West 211 243 2,900  Level FlightAware ADS-B
Tue 20:18:57 40.7920 -73.5410 270° West 190 219 2,900  Level FlightAware ADS-B
Tue 20:19:27 40.7880 -73.5750 261° West 185 213 2,900 -414 Level FlightAware ADS-B
Tue 20:19:55 40.7730 -73.6030 235° Southwest 197 227 2,500 -692 Descending FlightAware ADS-B
Tue 20:20:19 40.7610 -73.6240 233° Southwest 176 203 2,300 -321 Descending FlightAware ADS-B
Tue 20:20:51 40.7450 -73.6460 226° Southwest 144 166 2,200 -136 Descending FlightAware ADS-B
Tue 20:21:03 40.7400 -73.6530 227° Southwest 133 153 2,200 -300 Level FlightAware ADS-B
Tue 20:21:31 40.7260 -73.6680 219° Southwest 148 170 2,000 -522 Descending FlightAware ADS-B
Tue 20:21:49 40.7160 -73.6800 222° Southwest 148 170 1,800 -652 Descending FlightAware ADS-B
Tue 20:22:17 40.7020 -73.6960 221° Southwest 143 165 1,500 -692 Descending FlightAware ADS-B
Tue 20:22:41 40.6910 -73.7080 220° Southwest 127 146 1,200 -750 Descending FlightAware ADS-B
Tue 20:22:57 40.6840 -73.7160 221° Southwest 124 143 1,000 -750 Descending FlightAware ADS-B
Tue 20:23:13 40.6780 -73.7250 229° Southwest 124 143 800 -667 Descending FlightAware ADS-B
Tue 20:23:33 40.6690 -73.7360 223° Southwest 122 140 600 -750 Descending FlightAware ADS-B
Tue 20:24:01 40.6560 -73.7470 213° Southwest 123 142 200 -857 Descending FlightAware ADS-B
Tue 20:24:29 40.6410 -73.7580 209° Southwest 124 143 -429 Descending FlightAware ADS-B
Tue 20:24:57 40.6330 -73.7650 214° Southwest 49 56  Level FlightAware ADS-B
Tue 20:25:21 40.6300 -73.7680 217° Southwest 20 23  Level FlightAware ADS-B
Tue 20:25:55 40.6290 -73.7700 237° Southwest 30 35  Level FlightAware ADS-B
Tue 20:26:13 40.6300 -73.7700 360° North 29 33  Level FlightAware ADS-B
Tue 20:26:41 40.6320 -73.7690 21° North 17 20  Level FlightAware ADS-B
Tue 20:27:10 40.6350 -73.7690 360° North 18 21  Level FlightAware ADS-B
Tue 20:27:35 40.6370 -73.7690 360° North 15 17  Level FlightAware ADS-B
Tue 20:28:19 40.6380 -73.7700 323° Northwest 22 25  Level FlightAware ADS-B
Tue 20:31:00 40.6398 -73.7789 49° Northeast  Level Estimated
Tue 20:32:00 40.6398 -73.7789 75° East  Level Estimated
Tue 20:32:46 40.6390 -73.7720 75° East 32 37  Level FlightAware ADS-B
Tue 20:33:20 40.6400 -73.7740 303° West 24 28  Level FlightAware ADS-B
Tue 20:33:41 40.6400 -73.7750 270° West 28 32  Level FlightAware ADS-B
Tue 20:34:10 40.6380 -73.7760 201° Southwest 31 36  Level FlightAware ADS-B
Tue 20:34:38 40.6370 -73.7770 217° Southwest 19 22  Level FlightAware ADS-B

Login

Don't have an account? Register now (free) for customized features, flight alerts, and more!